| time (UTC) | temp F | wind direction | speed knots | gust knots | rain 1hr in | rain 24hr in | rain mn in | humidity % | barometer mb |
| 20260504110504 | 44 | 178 | 0.0 | 1.7 | 0.00 | 0.00 | 0.00 | 81 | 1003.9 |
| 20260504100503 | 45 | 12 | 0.0 | 1.7 | 0.00 | 0.00 | 0.00 | 78 | 1004.4 |
| 20260504082004 | 47 | 12 | 0.0 | 0.9 | 0.00 | 0.00 | 0.00 | 71 | 1005.4 |
| 20260504081515 | 47 | 12 | 0.0 | 1.7 | 0.00 | 0.00 | 0.00 | 70 | 1005.4 |
| 20260504081004 | 47 | 12 | 0.0 | 1.7 | 0.00 | 0.00 | 0.00 | 70 | 1005.4 |
| 20260504080504 | 47 | 12 | 0.0 | 1.7 | 0.00 | 0.00 | 0.00 | 70 | 1005.6 |
| 20260504050504 | 54 | 247 | 0.0 | 1.7 | 0.00 | 0.00 | 0.00 | 54 | 1007.4 |
| 20260504050017 | 54 | 247 | 0.0 | 1.7 | 0.00 | 0.00 | 0.00 | 53 | 1007.5 |
| 20260504045505 | 55 | 247 | 0.0 | 1.7 | 0.00 | 0.00 | 0.00 | 52 | 1007.5 |
| 20260504045003 | 55 | 252 | 0.0 | 1.7 | 0.00 | 0.00 | 0.00 | 52 | 1007.4 |
| 20260504044520 | 55 | 252 | 0.0 | 1.7 | 0.00 | 0.00 | 0.00 | 51 | 1007.4 |
| 20260504044007 | 56 | 252 | 0.0 | 1.7 | 0.00 | 0.00 | 0.00 | 50 | 1007.5 |
| 20260504043504 | 56 | 252 | 0.0 | 1.7 | 0.00 | 0.00 | 0.00 | 48 | 1007.6 |
| 20260504043027 | 56 | 252 | 0.0 | 1.7 | 0.00 | 0.00 | 0.00 | 49 | 1007.7 |
| 20260504042508 | 57 | 252 | 0.0 | 1.7 | 0.00 | 0.00 | 0.00 | 48 | 1007.6 |
| 20260504042007 | 57 | 250 | 0.0 | 1.7 | 0.00 | 0.00 | 0.00 | 47 | 1007.8 |
| 20260504041502 | 58 | 249 | 0.0 | 1.7 | 0.00 | 0.00 | 0.00 | 45 | 1007.9 |
| 20260504041005 | 58 | 269 | 0.0 | 1.7 | 0.00 | 0.00 | 0.00 | 46 | 1007.8 |
| 20260504040508 | 58 | 269 | 0.0 | 1.7 | 0.00 | 0.00 | 0.00 | 43 | 1007.8 |
| 20260504040012 | 58 | 269 | 0.0 | 1.7 | 0.00 | 0.00 | 0.00 | 43 | 1007.8 |
| 20260504035505 | 58 | 269 | 0.0 | 1.7 | 0.00 | 0.00 | 0.00 | 43 | 1007.8 |
| 20260504035005 | 58 | 269 | 0.0 | 1.7 | 0.00 | 0.00 | 0.00 | 44 | 1007.8 |
| 20260504034513 | 58 | 268 | 0.0 | 1.7 | 0.00 | 0.00 | 0.00 | 43 | 1007.9 |
| 20260504034009 | 59 | 261 | 0.0 | 1.7 | 0.00 | 0.00 | 0.00 | 44 | 1007.9 |
| 20260504033504 | 59 | 268 | 0.0 | 1.7 | 0.00 | 0.00 | 0.00 | 43 | 1008.0 |
| 20260504033016 | 59 | 268 | 0.0 | 1.7 | 0.00 | 0.00 | 0.00 | 42 | 1008.1 |
| 20260504032509 | 60 | 265 | 0.0 | 1.7 | 0.00 | 0.00 | 0.00 | 42 | 1008.1 |
| 20260504032008 | 60 | 265 | 0.9 | 1.7 | 0.00 | 0.00 | 0.00 | 40 | 1008.1 |
| 20260504031516 | 60 | 261 | 0.0 | 1.7 | 0.00 | 0.00 | 0.00 | 40 | 1008.1 |
| 20260504031009 | 61 | 261 | 0.0 | 1.7 | 0.00 | 0.00 | 0.00 | 40 | 1008.0 |
| 20260504030504 | 61 | 261 | 0.0 | 1.7 | 0.00 | 0.00 | 0.00 | 39 | 1007.9 |
| 20260504030011 | 61 | 261 | 0.0 | 1.7 | 0.00 | 0.00 | 0.00 | 39 | 1008.0 |
| 20260504025504 | 62 | 269 | 0.0 | 1.7 | 0.00 | 0.00 | 0.00 | 38 | 1007.9 |
| 20260504025006 | 62 | 269 | 0.0 | 1.7 | 0.00 | 0.00 | 0.00 | 37 | 1007.8 |
| 20260504024512 | 62 | 249 | 0.0 | 1.7 | 0.00 | 0.00 | 0.00 | 37 | 1007.8 |
| 20260504024007 | 62 | 248 | 0.0 | 1.7 | 0.00 | 0.00 | 0.00 | 37 | 1007.8 |
| 20260504023508 | 62 | 261 | 0.0 | 1.7 | 0.00 | 0.00 | 0.00 | 37 | 1007.7 |
| 20260504023016 | 63 | 261 | 0.0 | 1.7 | 0.00 | 0.00 | 0.00 | 37 | 1007.6 |
| 20260504022506 | 63 | 244 | 0.0 | 1.7 | 0.00 | 0.00 | 0.00 | 35 | 1007.6 |
| 20260504022004 | 63 | 244 | 0.9 | 1.7 | 0.00 | 0.00 | 0.00 | 37 | 1007.6 |
| 20260504021517 | 64 | 294 | 0.0 | 1.7 | 0.00 | 0.00 | 0.00 | 36 | 1007.4 |
| 20260504021006 | 65 | 294 | 0.0 | 1.7 | 0.00 | 0.00 | 0.00 | 34 | 1007.3 |
| 20260504020508 | 65 | 294 | 0.0 | 1.7 | 0.00 | 0.00 | 0.00 | 34 | 1007.4 |
| 20260504020016 | 66 | 259 | 0.0 | 1.7 | 0.00 | 0.00 | 0.00 | 33 | 1007.3 |
| 20260504015504 | 66 | 259 | 0.0 | 1.7 | 0.00 | 0.00 | 0.00 | 33 | 1007.4 |
| 20260504015009 | 66 | 334 | 0.0 | 1.7 | 0.00 | 0.00 | 0.00 | 31 | 1007.4 |
| 20260504014517 | 67 | 331 | 0.0 | 1.7 | 0.00 | 0.00 | 0.00 | 31 | 1007.3 |
| 20260504014005 | 67 | 326 | 0.0 | 1.7 | 0.00 | 0.00 | 0.00 | 31 | 1007.3 |
| 20260504013503 | 68 | 275 | 0.0 | 1.7 | 0.00 | 0.00 | 0.00 | 31 | 1007.3 |
| 20260504013030 | 68 | 263 | 0.0 | 1.7 | 0.00 | 0.00 | 0.00 | 30 | 1007.3 |
| 20260504012508 | 68 | 266 | 0.0 | 1.7 | 0.00 | 0.00 | 0.00 | 30 | 1007.2 |
| 20260504012009 | 69 | 274 | 0.0 | 3.5 | 0.00 | 0.00 | 0.00 | 29 | 1007.2 |
| 20260504011520 | 69 | 281 | 0.0 | 4.3 | 0.00 | 0.00 | 0.00 | 29 | 1007.1 |
| 20260504011008 | 69 | 222 | 0.9 | 4.3 | 0.00 | 0.00 | 0.00 | 29 | 1007.1 |
| 20260504010507 | 70 | 281 | 2.6 | 4.3 | 0.00 | 0.00 | 0.00 | 29 | 1007.1 |
| 20260504010021 | 70 | 265 | 0.9 | 3.5 | 0.00 | 0.00 | 0.00 | 29 | 1007.0 |
| 20260504005510 | 71 | 190 | 0.9 | 3.5 | 0.00 | 0.00 | 0.00 | 29 | 1007.0 |
| 20260504005011 | 71 | 263 | 0.9 | 5.2 | 0.00 | 0.00 | 0.00 | 28 | 1007.0 |
| 20260504004520 | 72 | 291 | 1.7 | 5.2 | 0.00 | 0.00 | 0.00 | 28 | 1006.9 |
| 20260504004004 | 72 | 281 | 0.0 | 1.7 | 0.00 | 0.00 | 0.00 | 28 | 1006.9 |
| 20260504003506 | 72 | 275 | 0.9 | 7.0 | 0.00 | 0.00 | 0.00 | 27 | 1006.9 |
| 20260504003012 | 73 | 249 | 1.7 | 6.1 | 0.00 | 0.00 | 0.00 | 27 | 1006.9 |
| 20260504002510 | 73 | 292 | 1.7 | 3.5 | 0.00 | 0.00 | 0.00 | 26 | 1006.9 |
| 20260504002006 | 73 | 302 | 2.6 | 6.1 | 0.00 | 0.00 | 0.00 | 25 | 1006.9 |
| 20260504001517 | 74 | 270 | 2.6 | 8.7 | 0.00 | 0.00 | 0.00 | 25 | 1006.9 |
| 20260504001007 | 74 | 263 | 2.6 | 9.6 | 0.00 | 0.00 | 0.00 | 24 | 1006.8 |
| 20260504000510 | 74 | 317 | 2.6 | 9.6 | 0.00 | 0.00 | 0.00 | 24 | 1006.8 |
| 20260504000020 | 74 | 289 | 3.5 | 9.6 | 0.00 | 0.00 | 0.00 | 24 | 1006.8 |
| 20260503235507 | 75 | 317 | 4.3 | 9.6 | 0.00 | 0.00 | 0.00 | 23 | 1006.7 |
| 20260503235007 | 75 | 296 | 3.5 | 9.6 | 0.00 | 0.00 | 0.00 | 23 | 1006.7 |
| 20260503234523 | 75 | 259 | 1.7 | 10.4 | 0.00 | 0.00 | 0.00 | 25 | 1006.7 |
| 20260503234009 | 75 | 323 | 3.5 | 10.4 | 0.00 | 0.00 | 0.00 | 25 | 1006.7 |
| 20260503233508 | 75 | 307 | 3.5 | 11.3 | 0.00 | 0.00 | 0.00 | 25 | 1006.7 |
| 20260503233022 | 75 | 260 | 1.7 | 11.3 | 0.00 | 0.00 | 0.00 | 25 | 1006.7 |
| 20260503232504 | 76 | 271 | 4.3 | 11.3 | 0.00 | 0.00 | 0.00 | 24 | 1006.6 |
| 20260503232008 | 75 | 265 | 4.3 | 11.3 | 0.00 | 0.00 | 0.00 | 24 | 1006.7 |
| 20260503231518 | 75 | 303 | 4.3 | 12.2 | 0.00 | 0.00 | 0.00 | 24 | 1006.7 |
| 20260503231007 | 75 | 229 | 3.5 | 12.2 | 0.00 | 0.00 | 0.00 | 25 | 1006.7 |
| 20260503230511 | 76 | 283 | 6.1 | 12.2 | 0.00 | 0.00 | 0.00 | 24 | 1006.7 |
| 20260503230019 | 76 | 250 | 2.6 | 13.0 | 0.00 | 0.00 | 0.00 | 24 | 1006.7 |
| 20260503225509 | 76 | 330 | 1.7 | 13.0 | 0.00 | 0.00 | 0.00 | 25 | 1006.7 |
| 20260503225010 | 75 | 282 | 6.1 | 13.9 | 0.00 | 0.00 | 0.00 | 25 | 1006.8 |
| 20260503224524 | 76 | 259 | 7.0 | 14.8 | 0.00 | 0.00 | 0.00 | 24 | 1006.8 |
| 20260503224008 | 76 | 269 | 4.3 | 14.8 | 0.00 | 0.00 | 0.00 | 25 | 1006.7 |
| 20260503223507 | 76 | 360 | 3.5 | 12.2 | 0.00 | 0.00 | 0.00 | 25 | 1006.6 |
| 20260503223022 | 76 | 275 | 3.5 | 12.2 | 0.00 | 0.00 | 0.00 | 25 | 1006.6 |
| 20260503222507 | 76 | 255 | 2.6 | 10.4 | 0.00 | 0.00 | 0.00 | 25 | 1006.6 |
| 20260503222012 | 76 | 277 | 4.3 | 12.2 | 0.00 | 0.00 | 0.00 | 24 | 1006.6 |
| 20260503221515 | 76 | 304 | 4.3 | 13.0 | 0.00 | 0.00 | 0.00 | 24 | 1006.5 |
| 20260503221011 | 75 | 321 | 7.8 | 13.0 | 0.00 | 0.00 | 0.00 | 24 | 1006.6 |
| 20260503220511 | 75 | 270 | 4.3 | 9.6 | 0.00 | 0.00 | 0.00 | 32 | 1006.5 |
| 20260503220020 | 75 | 246 | 4.3 | 10.4 | 0.00 | 0.00 | 0.00 | 36 | 1006.5 |
| 20260503215508 | 75 | 244 | 4.3 | 13.0 | 0.00 | 0.00 | 0.00 | 36 | 1006.6 |
| 20260503215010 | 74 | 271 | 3.5 | 13.0 | 0.00 | 0.00 | 0.00 | 38 | 1006.6 |
| 20260503214524 | 75 | 261 | 4.3 | 13.0 | 0.00 | 0.00 | 0.00 | 36 | 1006.5 |
| 20260503214009 | 74 | 259 | 4.3 | 13.0 | 0.00 | 0.00 | 0.00 | 38 | 1006.6 |
| 20260503213511 | 74 | 239 | 7.0 | 13.0 | 0.00 | 0.00 | 0.00 | 37 | 1006.5 |
| 20260503213026 | 74 | 255 | 5.2 | 13.0 | 0.00 | 0.00 | 0.00 | 37 | 1006.7 |
| 20260503212509 | 74 | 175 | 2.6 | 12.2 | 0.00 | 0.00 | 0.00 | 38 | 1006.7 |
| 20260503212010 | 73 | 291 | 5.2 | 12.2 | 0.00 | 0.00 | 0.00 | 38 | 1006.7 |
| 20260503211526 | 73 | 211 | 4.3 | 11.3 | 0.00 | 0.00 | 0.00 | 40 | 1006.8 |
| 20260503211010 | 73 | 186 | 5.2 | 11.3 | 0.00 | 0.00 | 0.00 | 39 | 1006.9 |
| 20260503210510 | 73 | 263 | 6.1 | 11.3 | 0.00 | 0.00 | 0.00 | 39 | 1007.0 |
| 20260503210018 | 73 | 283 | 4.3 | 10.4 | 0.00 | 0.00 | 0.00 | 40 | 1007.1 |
| 20260503205506 | 72 | 207 | 3.5 | 15.6 | 0.00 | 0.00 | 0.00 | 41 | 1007.1 |
| 20260503205011 | 72 | 186 | 6.1 | 18.2 | 0.00 | 0.00 | 0.00 | 40 | 1007.3 |
| 20260503204522 | 72 | 263 | 5.2 | 18.2 | 0.00 | 0.00 | 0.00 | 39 | 1007.3 |
| 20260503204009 | 73 | 254 | 4.3 | 13.0 | 0.00 | 0.00 | 0.00 | 39 | 1007.3 |
| 20260503203507 | 74 | 251 | 4.3 | 13.0 | 0.00 | 0.00 | 0.00 | 37 | 1007.3 |
| 20260503203008 | 75 | 182 | 2.6 | 11.3 | 0.00 | 0.00 | 0.00 | 30 | 1007.5 |
| 20260503202504 | 75 | 298 | 4.3 | 12.2 | 0.00 | 0.00 | 0.00 | 28 | 1007.1 |
| 20260503202007 | 75 | 325 | 2.6 | 13.9 | 0.00 | 0.00 | 0.00 | 30 | 1007.2 |
| 20260503201510 | 75 | 286 | 4.3 | 13.9 | 0.00 | 0.00 | 0.00 | 30 | 1007.1 |
| 20260503201009 | 74 | 277 | 5.2 | 10.4 | 0.00 | 0.00 | 0.00 | 34 | 1007.3 |
| 20260503200505 | 73 | 258 | 2.6 | 10.4 | 0.00 | 0.00 | 0.00 | 37 | 1007.3 |
| 20260503200014 | 74 | 292 | 5.2 | 8.7 | 0.00 | 0.00 | 0.00 | 35 | 1007.3 |
| 20260503195509 | 74 | 289 | 3.5 | 12.2 | 0.00 | 0.00 | 0.00 | 34 | 1007.3 |
| 20260503195008 | 74 | 236 | 4.3 | 12.2 | 0.00 | 0.00 | 0.00 | 32 | 1007.3 |
| 20260503194534 | 74 | 266 | 3.5 | 9.6 | 0.00 | 0.00 | 0.00 | 35 | 1007.4 |
| 20260503194010 | 73 | 294 | 2.6 | 9.6 | 0.00 | 0.00 | 0.00 | 35 | 1007.5 |
| 20260503193505 | 73 | 267 | 3.5 | 9.6 | 0.00 | 0.00 | 0.00 | 34 | 1007.6 |
| 20260503193005 | 73 | 153 | 2.6 | 9.6 | 0.00 | 0.00 | 0.00 | 36 | 1007.7 |
| 20260503192504 | 73 | 246 | 3.5 | 13.0 | 0.00 | 0.00 | 0.00 | 37 | 1007.7 |
| 20260503192004 | 72 | 279 | 5.2 | 13.0 | 0.00 | 0.00 | 0.00 | 35 | 1007.9 |
| 20260503191506 | 72 | 288 | 3.5 | 9.6 | 0.00 | 0.00 | 0.00 | 36 | 1007.8 |
| 20260503191007 | 72 | 281 | 3.5 | 9.6 | 0.00 | 0.00 | 0.00 | 36 | 1007.8 |
| 20260503190508 | 72 | 227 | 4.3 | 12.2 | 0.00 | 0.00 | 0.00 | 38 | 1008.0 |
| 20260503190012 | 71 | 301 | 3.5 | 12.2 | 0.00 | 0.00 | 0.00 | 37 | 1008.0 |
| 20260503185506 | 71 | 298 | 3.5 | 12.2 | 0.00 | 0.00 | 0.00 | 39 | 1008.1 |
| 20260503185005 | 71 | 278 | 6.1 | 12.2 | 0.00 | 0.00 | 0.00 | 37 | 1008.1 |
| 20260503184523 | 71 | 279 | 5.2 | 12.2 | 0.00 | 0.00 | 0.00 | 37 | 1008.2 |
| 20260503184007 | 70 | 327 | 5.2 | 10.4 | 0.00 | 0.00 | 0.00 | 37 | 1008.2 |
| 20260503183508 | 70 | 281 | 6.1 | 12.2 | 0.00 | 0.00 | 0.00 | 39 | 1008.2 |
| 20260503183020 | 70 | 254 | 3.5 | 12.2 | 0.00 | 0.00 | 0.00 | 40 | 1008.2 |
| 20260503182507 | 70 | 198 | 2.6 | 12.2 | 0.00 | 0.00 | 0.00 | 41 | 1008.4 |
| 20260503182006 | 70 | 184 | 2.6 | 11.3 | 0.00 | 0.00 | 0.00 | 42 | 1008.5 |
| 20260503181506 | 69 | 239 | 4.3 | 11.3 | 0.00 | 0.00 | 0.00 | 40 | 1008.5 |
| 20260503181005 | 69 | 300 | 4.3 | 9.6 | 0.00 | 0.00 | 0.00 | 40 | 1008.6 |
| 20260503180506 | 69 | 213 | 4.3 | 9.6 | 0.00 | 0.00 | 0.00 | 41 | 1008.6 |
| 20260503180010 | 68 | 296 | 2.6 | 14.8 | 0.00 | 0.00 | 0.00 | 41 | 1008.7 |
| 20260503175508 | 68 | 188 | 4.3 | 14.8 | 0.00 | 0.00 | 0.00 | 40 | 1008.9 |
| 20260503175005 | 67 | 272 | 3.5 | 11.3 | 0.00 | 0.00 | 0.00 | 39 | 1008.7 |
| 20260503174514 | 67 | 213 | 5.2 | 10.4 | 0.00 | 0.00 | 0.00 | 41 | 1008.9 |
| 20260503174006 | 67 | 234 | 4.3 | 10.4 | 0.00 | 0.00 | 0.00 | 41 | 1008.9 |
| 20260503173508 | 67 | 220 | 2.6 | 12.2 | 0.00 | 0.00 | 0.00 | 41 | 1008.9 |
| 20260503173021 | 66 | 234 | 4.3 | 12.2 | 0.00 | 0.00 | 0.00 | 40 | 1009.1 |
| 20260503172510 | 66 | 215 | 6.1 | 11.3 | 0.00 | 0.00 | 0.00 | 40 | 1009.2 |
| 20260503172011 | 66 | 352 | 2.6 | 11.3 | 0.00 | 0.00 | 0.00 | 44 | 1009.2 |
| 20260503171522 | 66 | 316 | 3.5 | 10.4 | 0.00 | 0.00 | 0.00 | 44 | 1009.2 |
| 20260503171007 | 66 | 197 | 2.6 | 10.4 | 0.00 | 0.00 | 0.00 | 41 | 1009.2 |
| 20260503170504 | 65 | 205 | 2.6 | 10.4 | 0.00 | 0.00 | 0.00 | 44 | 1009.2 |
| 20260503151007 | 58 | 192 | 3.5 | 10.4 | 0.00 | 0.00 | 0.00 | 49 | 1010.6 |
| 20260503150509 | 57 | 159 | 4.3 | 8.7 | 0.00 | 0.00 | 0.00 | 50 | 1010.7 |
| 20260503131009 | 51 | 151 | 0.9 | 3.5 | 0.00 | 0.00 | 0.00 | 56 | 1012.4 |
| 20260503130508 | 51 | 168 | 1.7 | 4.3 | 0.00 | 0.00 | 0.00 | 56 | 1012.8 |